Simultaneous Nadir Overpasses (SNOs) Predictions

Prediction of SNOs between AQUA and GOES-15 Satellite Orbit:

Table of predicted SNOs for the next 14.0 days since TLE Epoch: 11/13/2021
Index Date Time (AQUA) AQUA Lat,Lon GOES-15 Lat,Lon Distance(km) Time Diff (sec)
1 11/13/2021 10:07:22 0.01,-127.90 0.10,-128.44 61.17 80
2 11/15/2021 09:55:12 -0.66,-124.95 0.10,-128.43 396.57 80
3 11/15/2021 22:16:35 -0.46,-130.14 -0.08,-128.43 194.91 80
4 11/17/2021 22:04:24 0.16,-127.18 -0.08,-128.42 140.26 80
5 11/18/2021 10:25:40 0.92,-132.34 0.06,-128.42 446.52 80
6 11/19/2021 21:52:14 0.78,-124.22 -0.09,-128.40 474.85 80
7 11/20/2021 10:13:29 0.29,-129.38 0.06,-128.40 112.10 80
8 11/22/2021 10:01:18 -0.34,-126.42 0.07,-128.37 221.63 80
9 11/22/2021 22:22:43 -0.72,-131.62 -0.04,-128.36 370.57 80
10 11/24/2021 22:10:31 -0.13,-128.65 -0.05,-128.33 37.52 80
11 11/26/2021 21:58:20 0.52,-125.70 -0.05,-128.29 295.18 80
